1500670800.78,37204,23.38,74300.0,5.03,-24.35,-24.71,0,*79
1500670802.01,37205,23.38,74300.0,5.03,-24.41,-24.61,0,*7A
1500670803.22,37206,23.38,74300.5,5.03,-24.51,-24.77,0,*7F
1500670804.45,37207,23.44,74300.3,5.03,-24.57,-24.87,0,*77
1500670805.67,37208,23.38,74300.5,5.03,-24.61,-25.03,0,*70
1500670806.91,37209,23.44,74306.3,5.03,-24.51,-24.71,0,*76
1500670808.17,37210,23.38,74302.8,5.01,-24.41,-24.77,0,*7B
1500670809.4,37211,23.44,74304.3,5.03,-24.41,-24.61,0,*7F
1500670810.6,37212,23.44,74304.5,5.03,-24.61,-24.93,0,*73
1500670811.82,37213,23.38,74300.3,5.03,-24.87,-25.19,0,*79
1500670813.08,37214,23.38,74300.5,5.03,-24.71,-24.87,0,*71
1500670814.31,37215,23.44,74302.3,5.07,-24.21,-24.51,0,*7A
1500670815.54,37216,23.44,74304.8,5.07,-24.47,-24.67,0,*7C
1500670816.74,37217,23.44,74304.3,5.07,-24.35,-24.57,0,*7B
1500670817.97,37218,23.44,74302.3,5.07,-24.35,-24.67,0,*77
1500670819.17,37219,23.44,74306.3,5.07,-24.31,-24.57,0,*71
1500670820.38,37220,23.44,74306.5,5.07,-24.31,-24.57,0,*7B
1500670821.61,37221,23.44,74306.5,5.09,-24.31,-24.51,0,*72
1500670822.84,37222,23.44,74302.3,5.09,-24.31,-24.57,0,*77
1500670824.09,37223,23.38,74302.8,5.09,-24.51,-24.83,0,*79
1500670825.35,37224,23.44,74304.5,5.09,-24.35,-24.71,0,*71
1500670826.58,37225,23.44,74306.0,5.07,-24.47,-24.83,0,*76
1500670827.84,37226,23.44,74302.5,5.09,-24.47,-24.71,0,*76
1500670829.08,37227,23.44,74306.0,5.09,-24.35,-24.67,0,*75
1500670830.29,37228,23.44,74304.8,5.11,-24.47,-24.77,0,*77
1500670831.54,37229,23.44,74306.3,5.11,-24.41,-24.67,0,*71
1500670832.74,37230,23.44,74302.0,5.11,-24.31,-24.61,0,*78
1500670833.94,37231,23.44,74304.8,5.11,-24.61,-24.97,0,*75
1500670835.15,37232,23.38,74302.5,5.11,-24.51,-24.77,0,*7B
1500670836.38,37233,23.44,74302.5,5.13,-24.47,-24.77,0,*7F
1500670837.6,37234,23.38,74302.8,5.11,-24.67,-25.13,0,*7B
1500670838.81,37235,23.44,74300.8,5.11,-24.61,-25.09,0,*77
1500670840.01,37236,23.44,74300.8,5.11,-24.77,-25.13,0,*78
1500670841.23,37237,23.44,74304.8,5.11,-24.67,-24.97,0,*75
1500670842.45,37238,23.44,74302.5,5.11,-24.61,-24.83,0,*79
1500670843.68,37239,23.44,74306.5,5.11,-24.67,-24.97,0,*7B
1500670844.9,37240,23.44,74304.3,5.13,-24.61,-25.09,0,*77
1500670846.13,37241,23.38,74302.3,5.11,-24.83,-25.23,0,*70
1500670847.32,37242,23.38,74300.8,5.11,-24.93,-25.13,0,*71
1500670848.54,37243,23.38,74300.0,5.11,-24.97,-25.29,0,*7D
1500670849.78,37244,23.44,74300.8,5.13,-24.87,-25.19,0,*7A
1500670851.04,37245,23.44,74304.5,5.13,-24.71,-25.19,0,*72
1500670852.27,37246,23.44,74302.8,5.11,-24.83,-25.13,0,*74
1500670853.46,37247,23.44,74302.0,5.11,-24.61,-24.93,0,*70
1500670854.67,37248,23.44,74304.3,5.11,-24.47,-24.61,0,*76
1500670855.9,37249,23.38,74302.0,5.11,-24.51,-24.83,0,*7C
1500670857.12,37250,23.44,74302.5,5.11,-24.67,-25.13,0,*79
1500670858.32,37251,23.44,74302.3,5.11,-24.61,-24.97,0,*73
1500670859.52,37252,23.38,74300.5,5.11,-24.51,-24.93,0,*77
1500670860.72,37253,23.44,74306.0,5.11,-24.61,-24.97,0,*71
1500670861.95,37254,23.44,74302.5,5.11,-24.83,-25.13,0,*77
1500670863.18,37255,23.44,74306.8,5.13,-24.77,-25.09,0,*74
1500670864.39,37256,23.44,74302.3,5.11,-24.93,-25.29,0,*7D
1500670865.58,37257,23.44,74306.3,5.11,-24.93,-25.23,0,*76
1500670866.81,37258,23.38,74300.8,5.11,-24.83,-25.23,0,*78
1500670868.0,37259,23.44,74302.3,5.11,-24.61,-24.93,0,*7F
1500670869.21,37260,23.38,74302.8,5.11,-24.51,-24.93,0,*76
1500670870.46,37261,23.44,74304.8,5.13,-24.47,-24.87,0,*77
1500670871.69,37262,23.44,74304.8,5.11,-24.67,-25.09,0,*73
1500670872.91,37263,23.44,74302.0,5.13,-24.77,-25.09,0,*71
1500670874.2,37264,23.44,74304.0,5.13,-24.71,-25.03,0,*7A
1500670875.39,37265,23.44,74302.5,5.11,-24.61,-24.93,0,*70
1500670876.62,37266,23.44,74304.0,5.13,-24.77,-25.19,0,*75
1500670877.86,37267,23.44,74302.3,5.13,-24.87,-25.19,0,*7B
1500670879.08,37268,23.44,74306.8,5.13,-24.61,-24.97,0,*7B
1500670880.31,37269,23.38,74302.0,5.11,-24.83,-25.23,0,*7A
1500670881.53,37270,23.44,74302.3,5.11,-24.97,-25.29,0,*7D
1500670882.77,37271,23.44,74304.3,5.13,-25.03,-25.23,0,*78
1500670883.99,37272,23.38,74302.8,5.11,-25.23,-25.45,0,*7B
1500670885.2,37273,23.44,74302.8,5.13,-24.93,-25.23,0,*72
1500670886.41,37274,23.38,74302.8,5.13,-24.93,-25.23,0,*75
1500670887.61,37275,23.38,74302.8,5.11,-25.13,-25.39,0,*74
1500670888.81,37276,23.44,74306.5,5.11,-25.09,-25.35,0,*70
1500670890.03,37277,23.38,74300.3,5.11,-25.13,-25.45,0,*7D
1500670891.25,37278,23.44,74304.5,5.09,-25.35,-25.65,0,*7D
1500670892.48,37279,23.44,74304.0,5.07,-25.29,-25.65,0,*7F
1500670893.73,37280,23.38,74302.0,5.09,-25.45,-25.65,0,*7D
1500670894.97,37281,23.38,74300.5,5.09,-25.13,-25.45,0,*7D
1500670896.22,37282,23.38,74302.3,5.09,-25.13,-25.45,0,*7E
1500670897.47,37283,23.38,74300.3,5.09,-25.19,-25.45,0,*75
1500670898.71,37284,23.38,74302.3,5.09,-25.03,-25.35,0,*7E
1500670899.96,37285,23.38,74300.8,5.09,-25.29,-25.49,0,*7C
1500670901.19,37286,23.44,74304.0,5.09,-25.35,-25.65,0,*7C
1500670902.39,37287,23.38,74302.0,5.07,-25.35,-25.61,0,*77
1500670903.62,37288,23.38,74302.0,5.03,-25.39,-25.71,0,*71
1500670904.82,37289,23.38,74302.8,5.03,-25.09,-25.39,0,*7F
1500670906.05,37290,23.38,74300.3,5.07,-24.83,-24.97,0,*75
1500670907.28,37291,23.44,74304.8,5.07,-24.97,-25.29,0,*75
1500670908.48,37292,23.44,74304.3,5.07,-25.19,-25.49,0,*77
1500670909.68,37293,23.38,74302.3,5.07,-25.19,-25.49,0,*76
1500670910.91,37294,23.38,74300.8,5.03,-25.39,-25.71,0,*7C
1500670912.11,37295,23.38,74300.5,5.03,-25.35,-25.65,0,*74
1500670913.34,37296,23.38,74300.5,5.07,-24.97,-25.29,0,*72
1500670914.56,37297,23.38,74300.5,5.03,-24.87,-25.23,0,*7C
1500670915.79,37298,23.44,74306.3,5.03,-24.87,-25.23,0,*73
1500670916.98,37299,23.38,74300.0,5.03,-24.93,-25.19,0,*7E
1500670918.2,37300,23.38,74300.0,5.03,-24.61,-25.03,0,*79
1500670919.41,37301,23.38,74302.8,5.03,-24.61,-25.09,0,*72
1500670920.65,37302,23.38,74300.8,5.07,-24.71,-25.19,0,*75
1500670921.88,37303,23.44,74306.8,5.07,-24.71,-25.13,0,*7E
1500670923.11,37304,23.38,74304.8,5.07,-24.67,-24.97,0,*73
1500670924.34,37305,23.44,74306.3,5.07,-24.51,-24.83,0,*72
1500670925.55,37306,23.38,74304.0,5.03,-24.77,-25.09,0,*72
1500670926.81,37307,23.38,74302.3,5.07,-24.71,-25.03,0,*7B
1500670928.06,37308,23.38,74304.5,5.09,-24.51,-24.87,0,*75
1500670929.29,37309,23.38,74304.0,5.07,-24.57,-24.87,0,*7C
1500670930.49,37310,23.38,74302.3,5.07,-24.57,-24.97,0,*75
1500670931.72,37311,23.38,74300.5,5.07,-24.57,-24.83,0,*71
1500670932.96,37312,23.38,74304.8,5.09,-24.57,-24.87,0,*78
1500670934.23,37313,23.38,74302.3,5.09,-24.71,-25.13,0,*71
1500670935.48,37314,23.38,74306.3,5.07,-24.67,-25.03,0,*7E
1500670936.74,37315,23.44,74306.5,5.09,-24.71,-25.13,0,*77
1500670937.99,37316,23.38,74304.8,5.07,-24.67,-25.03,0,*7C
1500670939.2,37317,23.44,74304.8,5.07,-24.51,-24.97,0,*74
1500670940.44,37318,23.38,74304.3,5.09,-24.57,-24.83,0,*76
1500670941.7,37319,23.38,74300.5,5.09,-24.51,-24.87,0,*75
1500670942.95,37320,23.38,74304.8,5.09,-24.57,-24.87,0,*79
1500670944.21,37321,23.38,74306.3,5.09,-24.71,-25.13,0,*70
1500670945.46,37322,23.38,74302.3,5.09,-25.03,-25.35,0,*73
1500670946.74,37323,23.38,74302.8,5.09,-24.83,-25.29,0,*76
1500670947.94,37324,23.44,74304.3,5.11,-24.77,-25.23,0,*79
1500670949.16,37325,23.38,74306.3,5.11,-24.67,-24.97,0,*77
1500670950.41,37326,23.38,74306.3,5.09,-24.67,-24.97,0,*7D
1500670951.67,37327,23.38,74300.8,5.09,-24.71,-25.19,0,*7C
1500670952.89,37328,23.38,74304.0,5.09,-25.13,-25.35,0,*78
1500670954.11,37329,23.44,74304.3,5.09,-24.97,-25.35,0,*74
1500670955.33,37330,23.44,74304.0,5.09,-24.97,-25.19,0,*72
1500670956.55,37331,23.38,74302.3,5.09,-24.97,-25.35,0,*7D
1500670957.77,37332,23.38,74302.0,5.09,-24.97,-25.35,0,*7E
1500670958.99,37333,23.38,74304.0,5.09,-25.13,-25.35,0,*72
1500670960.22,37334,23.44,74304.3,5.09,-25.13,-25.49,0,*7E
1500670961.43,37335,23.38,74306.8,5.07,-25.13,-25.49,0,*71
1500670962.66,37336,23.38,74304.5,5.07,-24.67,-25.13,0,*7F
1500670963.92,37337,23.38,74304.0,5.07,-24.71,-25.03,0,*78
1500670965.17,37338,23.38,74300.3,5.09,-24.83,-25.19,0,*7F
1500670966.4,37339,23.38,74302.8,5.09,-25.13,-25.49,0,*73
1500670967.65,37340,23.38,74302.3,5.09,-25.19,-25.45,0,*7B
1500670968.89,37341,23.38,74304.0,5.09,-25.19,-25.45,0,*7A
1500670970.09,37342,23.38,74306.5,5.07,-24.97,-25.35,0,*77
1500670971.33,37343,23.38,74302.0,5.09,-25.03,-25.35,0,*74
1500670972.55,37344,23.38,74304.8,5.07,-25.19,-25.45,0,*71
1500670973.76,37345,23.38,74304.8,5.07,-25.13,-25.49,0,*76
1500670974.97,37346,23.38,74302.3,5.07,-25.13,-25.49,0,*75
1500670976.17,37347,23.38,74306.3,5.07,-25.19,-25.61,0,*74
1500670977.37,37348,23.38,74302.5,5.07,-25.35,-25.65,0,*71
1500670978.6,37349,23.38,74304.0,5.07,-25.29,-25.65,0,*7D
1500670979.83,37350,23.38,74304.5,5.07,-25.29,-25.61,0,*71
1500670981.03,37351,23.38,74302.0,5.07,-25.19,-25.61,0,*73
1500670982.22,37352,23.38,74304.0,5.03,-24.93,-25.35,0,*76
1500670983.46,37353,23.38,74304.8,5.03,-24.71,-25.09,0,*74
1500670984.72,37354,23.38,74306.3,5.01,-24.71,-25.19,0,*70
1500670985.98,37355,23.38,74302.5,5.03,-24.71,-25.03,0,*78
1500670987.18,37356,23.38,74306.3,5.03,-24.77,-25.19,0,*76
1500670988.38,37357,23.38,74302.3,5.03,-24.93,-25.23,0,*74
1500670989.6,37358,23.38,74306.5,5.03,-24.87,-25.19,0,*77
1500670990.81,37359,23.38,74304.5,5.03,-24.77,-25.09,0,*78
1500670992.03,37360,23.38,74304.5,5.03,-24.87,-25.23,0,*75
1500670993.23,37361,23.38,74304.5,5.03,-24.77,-25.19,0,*72
1500670994.46,37362,23.38,74306.5,5.07,-24.87,-25.13,0,*70
1500670995.71,37363,23.38,74306.8,5.09,-24.83,-25.19,0,*71
1500670996.94,37364,23.38,74304.5,5.07,-24.83,-25.13,0,*72
1500670998.17,37365,23.38,74304.3,5.07,-24.83,-25.13,0,*73
1500670999.44,37366,23.38,74304.5,5.03,-24.71,-25.03,0,*78
1500671000.7,37367,23.38,74300.3,5.03,-24.71,-25.03,0,*79
1500671001.95,37368,23.38,74302.3,5.07,-24.67,-25.03,0,*75
1500671003.17,37369,23.44,74308.3,5.07,-25.03,-25.35,0,*72
1500671004.37,37370,23.38,74304.3,5.07,-25.13,-25.35,0,*7B
1500671005.58,37371,23.38,74308.3,5.07,-25.19,-25.49,0,*7B
1500671006.8,37372,23.44,74308.8,5.07,-25.13,-25.45,0,*7E
1500671008.0,37373,23.38,74304.8,5.07,-24.97,-25.35,0,*75
1500671009.22,37374,23.38,74306.3,5.07,-25.13,-25.45,0,*78
1500671010.45,37375,23.38,74304.8,5.03,-25.19,-25.55,0,*76
1500671011.68,37376,23.38,74308.8,5.01,-25.19,-25.49,0,*7A
1500671012.9,37377,23.38,74306.5,5.01,-25.09,-25.49,0,*7A
1500671014.15,37378,23.38,74306.0,5.01,-25.23,-25.55,0,*70
1500671015.4,37379,23.38,74304.8,5.01,-25.23,-25.55,0,*71
1500671016.63,37380,23.38,74308.8,5.01,-25.39,-25.65,0,*7F
1500671017.84,37381,23.38,74308.0,5.03,-25.19,-25.49,0,*70
1500671019.06,37382,23.38,74306.5,5.03,-25.03,-25.35,0,*73
1500671020.31,37383,23.38,74304.3,5.01,-25.03,-25.39,0,*7C
1500671021.54,37384,23.38,74304.8,5.01,-25.19,-25.65,0,*79
1500671022.76,37385,23.38,74304.0,5.01,-25.23,-25.49,0,*7F
1500671024.01,37386,23.38,74308.3,5.01,-25.03,-25.35,0,*75
1500671025.24,37387,23.38,74308.3,5.01,-25.19,-25.49,0,*74
1500671026.47,37388,23.38,74306.0,4.99,-25.29,-25.61,0,*72
1500671027.69,37389,23.38,74306.3,4.97,-25.19,-25.65,0,*7A
1500671028.94,37390,23.38,74306.3,5.01,-25.03,-25.39,0,*7E
1500671030.17,37391,23.38,74306.5,5.01,-25.19,-25.39,0,*74
1500671031.37,37392,23.38,74308.0,4.99,-25.09,-25.39,0,*76
1500671032.6,37393,23.38,74306.5,4.99,-25.13,-25.45,0,*77
1500671033.83,37394,23.38,74308.0,4.99,-25.13,-25.55,0,*71
1500671035.04,37395,23.44,74308.8,4.99,-25.23,-25.61,0,*74
1500671036.25,37396,23.38,74304.5,4.99,-25.23,-25.61,0,*77
1500671037.48,37397,23.38,74306.0,4.99,-25.13,-25.55,0,*72
1500671038.69,37398,23.38,74304.0,4.99,-25.23,-25.61,0,*79
1500671039.94,37399,23.38,74308.8,4.97,-25.29,-25.49,0,*76
1500671041.17,37400,23.38,74308.0,4.97,-25.19,-25.49,0,*72
1500671042.39,37401,23.38,74304.8,4.99,-25.09,-25.45,0,*70
1500671043.61,37402,23.38,74308.5,4.97,-24.97,-25.35,0,*7C
1500671044.83,37403,23.38,74306.3,4.99,-24.93,-25.29,0,*7A
1500671046.09,37404,23.38,74308.3,4.97,-24.83,-25.13,0,*7B
1500671047.3,37405,23.38,74306.0,4.99,-24.77,-25.13,0,*7F
1500671048.57,37406,23.38,74308.3,4.97,-25.03,-25.29,0,*79
1500671049.77,37407,23.38,74308.0,4.95,-24.97,-25.35,0,*7B
1500671050.98,37408,23.38,74306.3,4.95,-25.19,-25.49,0,*78
1500671052.21,37409,23.38,74304.5,4.95,-25.13,-25.45,0,*7F
1500671053.42,37410,23.38,74306.3,4.95,-25.13,-25.49,0,*7B
1500671054.67,37411,23.38,74304.8,4.97,-25.29,-25.49,0,*71
1500671055.88,37412,23.38,74310.5,4.95,-25.13,-25.61,0,*73
1500671057.14,37413,23.38,74310.5,4.95,-24.83,-25.29,0,*76
1500671058.41,37414,23.38,74308.3,4.95,-24.71,-25.03,0,*74
1500671059.66,37415,23.38,74308.8,4.95,-24.83,-25.29,0,*70
1500671060.92,37416,23.38,74310.0,4.97,-24.83,-25.19,0,*72
1500671062.17,37417,23.38,74306.0,4.97,-24.83,-25.19,0,*73
1500671063.44,37418,23.38,74306.3,4.97,-24.67,-25.03,0,*7D
1500671064.71,37419,23.38,74308.0,4.97,-24.71,-25.13,0,*7A
1500671065.95,37420,23.38,74308.3,4.97,-24.87,-25.35,0,*7D
1500671067.15,37421,23.38,74306.5,4.95,-24.97,-25.35,0,*7F
1500671068.41,37422,23.38,74308.8,4.97,-24.83,-25.19,0,*75
1500671069.65,37423,23.38,74308.0,4.97,-24.87,-25.19,0,*70
1500671070.91,37424,23.38,74310.5,4.97,-24.83,-25.19,0,*73
1500671072.13,37425,23.38,74310.3,4.97,-24.97,-25.35,0,*79
1500671073.33,37426,23.38,74310.0,4.95,-24.97,-25.35,0,*78
1500671074.58,37427,23.38,74308.8,4.95,-25.03,-25.45,0,*72
1500671075.81,37428,23.38,74314.0,4.99,-24.83,-25.23,0,*78
1500671077.01,37429,23.38,74310.8,4.95,-24.97,-25.35,0,*77
1500671078.26,37430,23.38,74306.8,4.95,-25.03,-25.45,0,*74
1500671079.47,37431,23.38,74310.0,4.95,-25.19,-25.49,0,*72
1500671080.68,37432,23.38,74306.0,4.95,-25.19,-25.49,0,*71
1500671081.92,37433,23.38,74308.3,4.97,-24.97,-25.45,0,*79
1500671083.16,37434,23.38,74308.8,4.93,-25.09,-25.49,0,*70
1500671084.39,37435,23.38,74308.5,4.95,-25.03,-25.35,0,*76
1500671085.61,37436,23.38,74310.0,4.95,-24.87,-25.19,0,*76
1500671086.85,37437,23.38,74310.0,4.95,-24.83,-25.19,0,*73
1500671088.08,37438,23.38,74308.5,4.93,-25.09,-25.49,0,*7C
1500671089.31,37439,23.38,74306.8,4.93,-25.19,-25.49,0,*7C
1500671090.59,37440,23.38,74306.8,4.93,-25.03,-25.29,0,*7F
1500671091.82,37441,23.38,74310.0,4.93,-24.93,-25.39,0,*77
1500671093.07,37442,23.38,74308.3,4.95,-24.87,-25.29,0,*76
1500671094.3,37443,23.38,74308.0,4.95,-24.83,-25.19,0,*70
1500671095.54,37444,23.38,74310.0,4.95,-24.83,-25.19,0,*77
1500671096.8,37445,23.38,74312.3,4.93,-24.77,-25.03,0,*70
1500671098.09,37446,23.38,74310.8,4.93,-24.71,-25.03,0,*75
1500671099.34,37447,23.38,74310.3,4.93,-24.67,-24.93,0,*7B
1500671100.62,37448,23.38,74308.0,4.93,-24.67,-25.03,0,*7C
1500671101.85,37449,23.38,74308.8,4.93,-24.77,-25.19,0,*77
1500671103.08,37450,23.38,74306.3,4.93,-24.77,-25.19,0,*7F
1500671104.35,37451,23.38,74310.5,4.93,-24.71,-25.09,0,*79
1500671105.59,37452,23.38,74310.0,4.95,-24.71,-25.19,0,*7D
1500671106.82,37453,23.38,74310.5,4.95,-24.87,-25.23,0,*7C
1500671108.05,37454,23.38,74310.0,4.95,-24.83,-25.19,0,*76
1500671109.3,37455,23.38,74308.8,4.93,-24.87,-25.23,0,*7C
1500671110.54,37456,23.38,74308.8,4.95,-24.83,-25.13,0,*7E
1500671111.81,37457,23.38,74308.0,4.93,-24.71,-25.09,0,*7F
1500671113.07,37458,23.38,74312.0,4.93,-24.77,-25.03,0,*7C
1500671114.31,37459,23.38,74310.3,4.95,-24.71,-25.19,0,*76
1500671115.57,37460,23.38,74310.5,4.93,-24.71,-25.13,0,*70
1500671116.81,37461,23.38,74310.8,4.93,-24.77,-25.19,0,*7D
1500671118.05,37462,23.38,74306.0,4.95,-24.71,-25.13,0,*74
1500671119.29,37463,23.38,74308.3,4.95,-24.71,-25.13,0,*75
1500671120.52,37464,23.38,74308.8,4.93,-24.77,-25.23,0,*71
1500671121.76,37465,23.38,74308.5,4.95,-24.71,-24.97,0,*7E
1500671123.02,37466,23.38,74304.3,4.93,-24.77,-25.03,0,*71
1500671124.27,37467,23.38,74304.8,4.95,-24.67,-25.03,0,*77
1500671125.5,37468,23.38,74310.8,4.95,-24.61,-24.87,0,*73
1500671126.74,37469,23.38,74310.5,4.95,-24.71,-25.13,0,*7F
1500671127.98,37470,23.38,74310.8,4.93,-24.77,-25.23,0,*74
1500671129.23,37471,23.38,74306.5,4.95,-24.87,-25.29,0,*76
1500671130.49,37472,23.38,74308.8,4.95,-24.83,-25.29,0,*71
1500671131.72,37473,23.38,74310.5,4.95,-24.87,-25.19,0,*77
1500671132.97,37474,23.38,74310.0,4.93,-24.87,-25.23,0,*7F
1500671134.21,37475,23.38,74310.0,4.95,-24.71,-25.19,0,*78
1500671135.46,37476,23.38,74306.8,4.95,-24.87,-25.29,0,*71
1500671136.68,37477,23.38,74304.8,4.93,-24.93,-25.35,0,*7E
1500671137.94,37478,23.38,74310.3,4.93,-24.87,-25.35,0,*74
1500671139.14,37479,23.38,74312.8,4.95,-24.97,-25.35,0,*72
1500671140.39,37480,23.38,74310.5,4.93,-24.87,-25.35,0,*73
1500671141.62,37481,23.38,74308.3,4.95,-24.97,-25.29,0,*78
1500671142.85,37482,23.38,74308.8,4.93,-25.09,-25.39,0,*7A
1500671144.11,37483,23.38,74308.8,4.93,-25.03,-25.39,0,*71
1500671145.33,37484,23.38,74310.0,4.93,-24.93,-25.39,0,*7E
1500671146.6,37485,23.38,74310.0,4.93,-24.71,-25.19,0,*71
1500671147.83,37486,23.38,74310.3,4.93,-24.77,-25.23,0,*7D
1500671149.09,37487,23.38,74310.0,4.95,-24.83,-25.29,0,*7B
1500671150.32,37488,23.38,74308.8,4.93,-24.77,-25.19,0,*7A
1500671151.56,37489,23.38,74310.0,4.93,-24.77,-25.09,0,*7A
1500671152.79,37490,23.38,74310.3,4.93,-24.77,-25.09,0,*72
1500671154.01,37491,23.38,74304.0,4.91,-24.93,-25.39,0,*78
1500671155.23,37492,23.38,74310.5,4.91,-24.93,-25.39,0,*7B
1500671156.44,37493,23.38,74308.0,4.91,-24.93,-25.39,0,*7A
1500671157.69,37494,23.38,74310.5,4.91,-24.87,-25.35,0,*74
1500671158.93,37495,23.38,74308.8,4.91,-24.87,-25.19,0,*7B
1500671160.15,37496,23.38,74310.5,4.89,-24.97,-25.45,0,*79
1500671161.37,37497,23.38,74306.8,4.89,-24.87,-25.39,0,*72
1500671162.62,37498,23.38,74308.5,4.91,-24.87,-25.23,0,*7F
1500671163.86,37499,23.38,74310.5,4.91,-24.87,-25.23,0,*7E
1500671165.12,37500,23.38,74310.3,4.93,-24.87,-25.19,0,*74
1500671166.37,37501,23.38,74310.3,4.93,-24.87,-25.35,0,*7B
1500671167.62,37502,23.38,74308.3,4.91,-24.87,-25.35,0,*7A
1500671168.83,37503,23.38,74308.3,4.91,-24.93,-25.35,0,*7E
1500671170.05,37504,23.38,74310.0,4.89,-24.83,-25.23,0,*76
1500671171.28,37505,23.38,74310.5,4.91,-24.77,-25.09,0,*7D
1500671172.51,37506,23.38,74308.8,4.89,-24.83,-25.13,0,*77
1500671173.72,37507,23.38,74310.3,4.91,-24.93,-25.23,0,*7D
1500671174.91,37508,23.38,74308.5,4.89,-24.93,-25.23,0,*7B
1500671176.12,37509,23.38,74308.8,4.89,-24.97,-25.45,0,*7E
1500671177.34,37510,23.38,74308.5,4.91,-24.93,-25.35,0,*7C
1500671178.57,37511,23.38,74310.3,4.93,-24.77,-25.23,0,*72
1500671179.8,37512,23.38,74308.5,4.93,-24.77,-25.23,0,*71
1500671181.03,37513,23.38,74310.5,4.91,-24.77,-25.19,0,*7B
1500671182.21,37514,23.38,74306.5,4.89,-24.93,-25.23,0,*76
1500671183.43,37515,23.38,74308.8,4.91,-25.09,-25.39,0,*77
1500671184.68,37516,23.38,74310.5,4.91,-25.03,-25.39,0,*7E
1500671185.93,37517,23.38,74308.0,4.91,-24.87,-25.23,0,*79
1500671187.18,37518,23.38,74310.0,4.87,-24.97,-25.45,0,*70
1500671188.37,37519,23.38,74310.3,4.89,-24.97,-25.39,0,*74
1500671189.57,37520,23.38,74308.3,4.89,-24.97,-25.39,0,*7E
1500671190.76,37521,23.38,74308.8,4.89,-24.97,-25.39,0,*7F
1500671192.01,37522,23.38,74308.3,4.87,-25.03,-25.35,0,*72
1500671193.21,37523,23.38,74310.5,4.89,-24.77,-25.09,0,*70
1500671194.47,37524,23.38,74310.3,4.87,-24.83,-24.97,0,*74
1500671195.72,37525,23.38,74310.3,4.87,-24.97,-25.29,0,*74
1500671196.99,37526,23.38,74310.3,4.87,-25.03,-25.45,0,*71
1500671198.24,37527,23.38,74308.8,4.87,-25.13,-25.45,0,*71
1500671199.5,37528,23.38,74304.8,4.87,-25.03,-25.49,0,*73
1500671200.72,37529,23.38,74308.3,4.85,-24.97,-25.29,0,*7A
1500671201.97,37530,23.38,74310.0,4.85,-25.03,-25.45,0,*74
1500671203.19,37531,23.38,74310.3,4.87,-24.97,-25.35,0,*7C
1500671204.46,37532,23.38,74308.8,4.87,-24.87,-25.29,0,*73
1500671205.69,37533,23.38,74310.5,4.87,-24.97,-25.35,0,*7E
1500671206.93,37534,23.38,74310.8,4.87,-24.97,-25.29,0,*74
1500671208.13,37535,23.38,74308.5,4.85,-24.97,-25.35,0,*7A
1500671209.36,37536,23.38,74304.8,4.87,-25.13,-25.49,0,*7D
1500671210.58,37537,23.38,74308.8,4.85,-24.97,-25.45,0,*7F
1500671211.83,37538,23.38,74308.8,4.85,-25.03,-25.45,0,*7C
1500671213.08,37539,23.38,74308.3,4.87,-25.03,-25.35,0,*78
1500671214.28,37540,23.38,74306.8,4.85,-24.97,-25.35,0,*78
1500671215.5,37541,23.38,74308.8,4.85,-24.97,-25.29,0,*74
1500671216.69,37542,23.38,74306.3,4.85,-24.97,-25.35,0,*7A
1500671217.92,37543,23.38,74310.3,4.81,-25.03,-25.49,0,*78
1500671219.15,37544,23.38,74308.0,4.81,-25.03,-25.49,0,*7F
1500671220.35,37545,23.38,74312.3,4.81,-25.09,-25.39,0,*73
1500671221.58,37546,23.38,74312.3,4.81,-25.03,-25.39,0,*7A
1500671222.77,37547,23.38,74310.5,4.81,-24.93,-25.39,0,*73
1500671223.99,37548,23.38,74308.8,4.79,-24.93,-25.35,0,*77
1500671225.22,37549,23.38,74310.0,4.81,-25.03,-25.39,0,*75
1500671226.46,37550,23.38,74310.8,4.85,-24.87,-25.29,0,*75
1500671227.67,37551,23.38,74312.0,4.81,-25.09,-25.49,0,*71
1500671228.89,37552,23.38,74312.8,4.81,-25.19,-25.55,0,*7E
1500671230.12,37553,23.38,74310.3,4.81,-24.87,-25.23,0,*78
1500671231.36,37554,23.38,74308.8,4.79,-24.87,-25.19,0,*71
1500671232.62,37555,23.38,74310.3,4.79,-24.83,-25.19,0,*74
1500671233.88,37556,23.38,74308.3,4.81,-24.71,-25.03,0,*76
1500671235.12,37557,23.38,74308.3,4.81,-24.71,-25.09,0,*7D
1500671236.38,37558,23.38,74310.8,4.79,-24.71,-25.19,0,*74
1500671237.6,37559,23.38,74308.8,4.81,-24.87,-25.19,0,*7B
1500671238.79,37560,23.38,74308.8,4.81,-24.93,-25.23,0,*7D
1500671239.98,37561,23.38,74308.8,4.81,-24.93,-25.39,0,*77
1500671241.17,37562,23.38,74304.0,4.81,-24.93,-25.23,0,*7F
1500671242.4,37563,23.38,74310.0,4.81,-24.83,-25.19,0,*76
1500671243.65,37564,23.38,74310.8,4.79,-24.87,-25.23,0,*7B
1500671244.91,37565,23.38,74308.8,4.79,-24.71,-25.09,0,*7B
1500671246.17,37566,23.38,74308.0,4.79,-25.03,-25.39,0,*7F
1500671247.42,37567,23.38,74308.0,4.79,-25.19,-25.55,0,*7F
1500671248.65,37568,23.38,74308.0,4.79,-25.09,-25.49,0,*7C
1500671249.91,37569,23.38,74312.5,4.79,-25.09,-25.55,0,*70
1500671251.16,37570,23.38,74308.3,4.79,-25.03,-25.35,0,*74
1500671252.37,37571,23.38,74310.3,4.79,-24.93,-25.35,0,*7D
1500671253.58,37572,23.38,74310.8,4.81,-25.09,-25.49,0,*70
1500671254.83,37573,23.38,74308.8,4.79,-25.03,-25.39,0,*7B
1500671256.05,37574,23.38,74308.8,4.79,-24.93,-25.39,0,*74
1500671257.25,37575,23.38,74308.3,4.77,-25.09,-25.39,0,*79
1500671258.48,37576,23.38,74304.8,4.77,-25.09,-25.45,0,*71
1500671259.69,37577,23.38,74310.5,4.77,-25.13,-25.61,0,*7D
1500671260.92,37578,23.38,74308.8,4.77,-25.13,-25.55,0,*75
1500671262.13,37579,23.38,74310.3,4.77,-25.09,-25.61,0,*78
1500671263.36,37580,23.38,74310.8,4.77,-25.09,-25.55,0,*79
1500671264.59,37581,23.38,74310.8,4.77,-25.13,-25.55,0,*73
1500671265.8,37582,23.38,74306.5,4.77,-25.13,-25.61,0,*77
1500671267.03,37583,23.38,74310.8,4.75,-25.13,-25.61,0,*74
1500671268.27,37584,23.38,74308.0,4.77,-25.13,-25.55,0,*76
1500671269.49,37585,23.38,74308.8,4.75,-25.19,-25.61,0,*78
1500671270.75,37586,23.38,74308.8,4.75,-25.03,-25.49,0,*7A
1500671272.03,37587,23.38,74306.3,4.75,-24.83,-25.29,0,*74
1500671273.24,37588,23.38,74306.3,4.77,-24.77,-25.13,0,*7B
1500671274.49,37589,23.38,74306.5,4.75,-25.03,-25.35,0,*7E
1500671275.74,37590,23.38,74310.0,4.75,-24.97,-25.29,0,*77
1500671276.96,37591,23.38,74308.0,4.75,-24.97,-25.35,0,*7B
1500671278.2,37592,23.38,74304.0,4.75,-24.93,-25.29,0,*71
1500671279.43,37593,23.38,74308.8,4.75,-24.77,-25.13,0,*73
1500671280.65,37594,23.38,74308.8,4.75,-24.93,-25.13,0,*7E
1500671281.87,37595,23.38,74310.8,4.75,-24.93,-25.19,0,*75
1500671283.12,37596,23.38,74308.8,4.75,-24.83,-25.13,0,*7D
1500671284.35,37597,23.38,74304.5,4.77,-24.97,-25.29,0,*72
1500671285.62,37598,23.38,74308.0,4.75,-25.03,-25.45,0,*79
1500671286.83,37599,23.38,74308.3,4.73,-25.13,-25.49,0,*73
1500671288.08,37600,23.38,74304.8,4.75,-24.97,-25.29,0,*7D
1500671289.3,37601,23.38,74304.8,4.75,-24.97,-25.35,0,*71
1500671290.55,37602,23.38,74310.8,4.75,-24.97,-25.29,0,*7F
1500671291.78,37603,23.38,74308.5,4.73,-24.83,-25.13,0,*74
1500671293.0,37604,23.38,74308.3,4.73,-24.83,-25.19,0,*79
1500671294.23,37605,23.38,74308.8,4.73,-24.97,-25.29,0,*7E
1500671295.48,37606,23.38,74308.3,4.73,-24.83,-25.03,0,*70
1500671296.71,37607,23.38,74308.3,4.73,-24.77,-25.03,0,*7A
1500671297.92,37608,23.38,74310.5,4.73,-24.93,-25.29,0,*77
1500671299.15,37609,23.38,74308.8,4.73,-24.83,-25.19,0,*74
1500671300.34,37610,23.38,74306.8,4.73,-24.93,-25.19,0,*7D